Time,TemperatureF,DewpointF,PressureIn,WindDirection,WindDirectionDegrees,WindSpeedMPH,WindSpeedGustMPH,Humidity,HourlyPrecipIn,Conditions,Clouds,dailyrainin,SoftwareType,DateUTC
2013-09-13 00:13:00,64.0,56.0,30.07,SE,133,0.0,3.0,76,0.00,,,0.00,,2013-09-13 05:13:00,
2013-09-13 00:22:00,64.0,56.0,30.08,SE,139,1.0,3.0,76,0.00,,,0.00,,2013-09-13 05:22:00,
2013-09-13 00:43:00,64.0,56.0,30.08,SE,140,1.0,5.0,76,0.00,,,0.00,,2013-09-13 05:43:00,
2013-09-13 00:53:00,64.0,56.0,30.08,SE,140,0.0,2.0,76,0.00,,,0.00,,2013-09-13 05:53:00,
2013-09-13 01:12:00,64.0,57.0,30.08,SE,140,0.0,3.0,77,0.00,,,0.00,,2013-09-13 06:12:00,
2013-09-13 01:22:00,63.0,56.0,30.08,SE,140,0.0,3.0,78,0.00,,,0.00,,2013-09-13 06:22:00,
2013-09-13 01:52:00,62.0,56.0,30.07,SE,140,0.0,3.0,80,0.00,,,0.00,,2013-09-13 06:52:00,
2013-09-13 02:11:00,62.0,56.0,30.08,SE,140,1.0,3.0,81,0.00,,,0.00,,2013-09-13 07:11:00,
2013-09-13 02:22:00,61.0,55.0,30.08,SE,140,1.0,3.0,80,0.00,,,0.00,,2013-09-13 07:22:00,
2013-09-13 02:42:00,61.0,55.0,30.08,SE,140,1.0,4.0,81,0.00,,,0.00,,2013-09-13 07:42:00,
2013-09-13 02:52:00,61.0,55.0,30.07,SE,140,0.0,3.0,80,0.00,,,0.00,,2013-09-13 07:52:00,
2013-09-13 03:11:00,61.0,55.0,30.07,SE,140,1.0,6.0,80,0.00,,,0.00,,2013-09-13 08:11:00,
2013-09-13 03:22:00,60.0,54.0,30.07,SE,140,0.0,4.0,80,0.00,,,0.00,,2013-09-13 08:22:00,
2013-09-13 03:42:00,60.0,54.0,30.07,SE,140,0.0,4.0,80,0.00,,,0.00,,2013-09-13 08:42:00,
2013-09-13 03:52:00,60.0,54.0,30.07,SE,140,0.0,4.0,81,0.00,,,0.00,,2013-09-13 08:52:00,
2013-09-13 04:12:00,60.0,54.0,30.07,SE,140,1.0,4.0,81,0.00,,,0.00,,2013-09-13 09:12:00,
2013-09-13 04:21:00,60.0,54.0,30.07,SE,140,0.0,3.0,82,0.00,,,0.00,,2013-09-13 09:21:00,
2013-09-13 04:43:00,60.0,54.0,30.07,SSE,154,0.0,4.0,82,0.00,,,0.00,,2013-09-13 09:43:00,
2013-09-13 04:54:00,59.0,54.0,30.07,SSE,154,0.0,3.0,82,0.00,,,0.00,,2013-09-13 09:54:00,
2013-09-13 05:13:00,60.0,54.0,30.07,SE,144,2.0,5.0,81,0.00,,,0.00,,2013-09-13 10:13:00,
2013-09-13 05:23:00,60.0,54.0,30.07,SSE,149,0.0,5.0,81,0.00,,,0.00,,2013-09-13 10:23:00,
2013-09-13 05:42:00,60.0,54.0,30.07,SSE,149,1.0,2.0,81,0.00,,,0.00,,2013-09-13 10:42:00,
2013-09-13 05:53:00,60.0,54.0,30.07,SSE,149,2.0,5.0,80,0.00,,,0.00,,2013-09-13 10:53:00,
2013-09-13 06:12:00,60.0,54.0,30.06,SSE,148,1.0,5.0,80,0.00,,,0.00,,2013-09-13 11:12:00,
2013-09-13 06:22:00,60.0,54.0,30.06,SSE,148,2.0,4.0,80,0.00,,,0.00,,2013-09-13 11:22:00,
2013-09-13 06:42:00,60.0,54.0,30.06,SSE,148,0.0,3.0,80,0.00,,,0.00,,2013-09-13 11:42:00,
2013-09-13 06:52:00,60.0,54.0,30.06,SSE,148,0.0,2.0,80,0.00,,,0.00,,2013-09-13 11:52:00,
2013-09-13 07:12:00,60.0,54.0,30.06,SSE,148,0.0,3.0,81,0.00,,,0.00,,2013-09-13 12:12:00,
2013-09-13 07:22:00,60.0,54.0,30.07,SSE,148,0.0,1.0,82,0.00,,,0.00,,2013-09-13 12:22:00,
2013-09-13 07:42:00,59.0,53.0,30.07,SSE,148,0.0,3.0,81,0.00,,,0.00,,2013-09-13 12:42:00,
2013-09-13 07:52:00,60.0,54.0,30.07,SSE,147,0.0,2.0,81,0.00,,,0.00,,2013-09-13 12:52:00,
2013-09-13 08:11:00,59.0,53.0,30.08,SSE,148,0.0,1.0,81,0.00,,,0.00,,2013-09-13 13:11:00,
2013-09-13 08:21:00,60.0,54.0,30.08,SSE,148,0.0,3.0,81,0.00,,,0.00,,2013-09-13 13:21:00,
2013-09-13 08:52:00,61.0,53.0,30.08,SE,134,3.0,5.0,76,0.00,,,0.00,,2013-09-13 13:52:00,
2013-09-13 09:11:00,61.0,52.0,30.07,SE,132,2.0,6.0,71,0.00,,,0.00,,2013-09-13 14:11:00,
2013-09-13 09:22:00,62.0,51.0,30.07,SE,143,3.0,7.0,67,0.00,,,0.00,,2013-09-13 14:22:00,
2013-09-13 09:42:00,63.0,51.0,30.07,South,169,4.0,9.0,64,0.00,,,0.00,,2013-09-13 14:42:00,
2013-09-13 09:52:00,63.0,50.0,30.07,SE,128,4.0,8.0,62,0.00,,,0.00,,2013-09-13 14:52:00,
2013-09-13 10:11:00,64.0,50.0,30.07,SE,142,4.0,9.0,61,0.00,,,0.00,,2013-09-13 15:11:00,
2013-09-13 10:22:00,64.0,49.0,30.06,SE,132,3.0,11.0,59,0.00,,,0.00,,2013-09-13 15:22:00,
2013-09-13 10:43:00,65.0,48.0,30.06,SE,146,7.0,15.0,55,0.00,,,0.00,,2013-09-13 15:43:00,
2013-09-13 10:53:00,65.0,48.0,30.06,SE,142,7.0,14.0,54,0.00,,,0.00,,2013-09-13 15:53:00,
2013-09-13 11:12:00,66.0,48.0,30.06,SSE,163,7.0,14.0,52,0.00,,,0.00,,2013-09-13 16:12:00,
2013-09-13 11:24:00,66.0,48.0,30.06,SE,133,7.0,14.0,52,0.00,,,0.00,,2013-09-13 16:24:00,
2013-09-13 11:43:00,66.0,48.0,30.06,SE,132,7.0,14.0,52,0.00,,,0.00,,2013-09-13 16:43:00,
2013-09-13 11:54:00,66.0,48.0,30.06,SSE,149,6.0,15.0,53,0.00,,,0.00,,2013-09-13 16:54:00,
2013-09-13 12:13:00,67.0,49.0,30.06,SE,136,5.0,12.0,53,0.00,,,0.00,,2013-09-13 17:13:00,
2013-09-13 12:24:00,67.0,49.0,30.06,SE,134,8.0,15.0,53,0.00,,,0.00,,2013-09-13 17:24:00,
2013-09-13 12:44:00,67.0,49.0,30.05,SE,128,6.0,14.0,53,0.00,,,0.00,,2013-09-13 17:44:00,
2013-09-13 12:53:00,66.0,49.0,30.05,SE,127,7.0,14.0,54,0.00,,,0.00,,2013-09-13 17:53:00,
2013-09-13 13:12:00,66.0,49.0,30.05,SE,127,7.0,12.0,54,0.00,,,0.00,,2013-09-13 18:12:00,
2013-09-13 13:22:00,66.0,49.0,30.04,SE,130,6.0,12.0,55,0.00,,,0.00,,2013-09-13 18:22:00,
2013-09-13 13:42:00,67.0,50.0,30.03,SE,140,6.0,15.0,54,0.00,,,0.00,,2013-09-13 18:42:00,
2013-09-13 13:52:00,67.0,50.0,30.03,SE,127,7.0,15.0,54,0.00,,,0.00,,2013-09-13 18:52:00,
2013-09-13 14:11:00,67.0,50.0,30.03,SSW,207,3.0,14.0,55,0.00,,,0.00,,2013-09-13 19:11:00,
2013-09-13 14:22:00,66.0,49.0,30.02,ESE,122,6.0,15.0,55,0.00,,,0.00,,2013-09-13 19:22:00,
2013-09-13 14:43:00,66.0,50.0,30.02,SSE,151,6.0,17.0,57,0.00,,,0.00,,2013-09-13 19:43:00,
2013-09-13 14:52:00,66.0,51.0,30.01,SE,146,3.0,9.0,58,0.00,,,0.00,,2013-09-13 19:52:00,
2013-09-13 15:11:00,66.0,51.0,30.01,SE,132,5.0,10.0,58,0.00,,,0.00,,2013-09-13 20:11:00,
2013-09-13 15:22:00,66.0,51.0,30.00,SE,132,4.0,11.0,59,0.00,,,0.00,,2013-09-13 20:22:00,
2013-09-13 15:52:00,66.0,53.0,29.99,SE,134,3.0,9.0,63,0.00,,,0.00,,2013-09-13 20:52:00,
2013-09-13 16:12:00,66.0,53.0,29.98,ESE,121,3.0,10.0,64,0.00,,,0.00,,2013-09-13 21:12:00,
2013-09-13 16:22:00,66.0,53.0,29.98,East,92,2.0,11.0,64,0.00,,,0.00,,2013-09-13 21:22:00,
2013-09-13 16:54:00,64.0,55.0,29.98,SSW,207,4.0,8.0,72,0.00,,,0.00,,2013-09-13 21:54:00,
2013-09-13 17:13:00,64.0,56.0,29.97,SW,225,3.0,8.0,74,0.00,,,0.00,,2013-09-13 22:13:00,
2013-09-13 17:24:00,64.0,56.0,29.97,SSW,194,2.0,7.0,75,0.00,,,0.00,,2013-09-13 22:24:00,
2013-09-13 17:43:00,63.0,56.0,29.97,South,188,0.0,8.0,79,0.00,,,0.00,,2013-09-13 22:43:00,
2013-09-13 17:53:00,63.0,56.0,29.97,South,188,0.0,8.0,79,0.00,,,0.00,,2013-09-13 22:53:00,
2013-09-13 18:12:00,63.0,55.0,29.96,SE,140,4.0,9.0,76,0.00,,,0.00,,2013-09-13 23:12:00,
2013-09-13 18:22:00,63.0,55.0,29.95,South,180,5.0,9.0,74,0.00,,,0.00,,2013-09-13 23:22:00,
2013-09-13 18:53:00,63.0,52.0,29.95,SE,132,4.0,13.0,68,0.00,,,0.00,,2013-09-13 23:53:00,
2013-09-13 19:12:00,63.0,53.0,29.94,SE,133,6.0,10.0,69,0.00,,,0.00,,2013-09-14 00:12:00,
2013-09-13 19:22:00,64.0,54.0,29.94,SE,143,4.0,8.0,69,0.00,,,0.00,,2013-09-14 00:22:00,
2013-09-13 19:42:00,64.0,53.0,29.93,SSE,166,7.0,13.0,68,0.00,,,0.00,,2013-09-14 00:42:00,
2013-09-13 19:52:00,64.0,54.0,29.93,SSE,153,7.0,11.0,69,0.00,,,0.00,,2013-09-14 00:52:00,
2013-09-13 20:11:00,64.0,54.0,29.93,SSE,158,3.0,9.0,70,0.00,,,0.00,,2013-09-14 01:11:00,
2013-09-13 20:22:00,63.0,53.0,29.93,SSE,152,2.0,6.0,71,0.00,,,0.00,,2013-09-14 01:22:00,
2013-09-13 20:42:00,63.0,53.0,29.93,SE,140,4.0,8.0,71,0.00,,,0.00,,2013-09-14 01:42:00,
2013-09-13 20:52:00,63.0,54.0,29.93,SSE,153,3.0,7.0,72,0.00,,,0.00,,2013-09-14 01:52:00,
2013-09-13 21:12:00,62.0,53.0,29.93,SSE,153,1.0,3.0,73,0.00,,,0.00,,2013-09-14 02:12:00,
2013-09-13 21:22:00,62.0,54.0,29.93,SE,138,0.0,5.0,75,0.00,,,0.00,,2013-09-14 02:22:00,
2013-09-13 21:42:00,61.0,53.0,29.94,SE,134,2.0,4.0,76,0.00,,,0.00,,2013-09-14 02:42:00,
2013-09-13 21:52:00,61.0,54.0,29.94,SE,131,2.0,5.0,77,0.00,,,0.00,,2013-09-14 02:52:00,
2013-09-13 22:12:00,61.0,54.0,29.93,SE,140,2.0,5.0,78,0.00,,,0.00,,2013-09-14 03:12:00,
2013-09-13 22:22:00,61.0,54.0,29.94,SSE,150,2.0,5.0,77,0.00,,,0.00,,2013-09-14 03:22:00,
2013-09-13 22:55:00,62.0,54.0,29.93,SE,131,5.0,8.0,74,0.00,,,0.00,,2013-09-14 03:55:00,
2013-09-13 23:14:00,62.0,53.0,29.93,SE,136,5.0,12.0,72,0.00,,,0.00,,2013-09-14 04:14:00,
2013-09-13 23:24:00,62.0,53.0,29.93,SE,136,4.0,10.0,72,0.00,,,0.00,,2013-09-14 04:24:00,
2013-09-13 23:43:00,62.0,53.0,29.93,SSE,161,5.0,9.0,73,0.00,,,0.00,,2013-09-14 04:43:00,
2013-09-13 23:54:00,61.0,52.0,29.93,SSE,147,4.0,9.0,73,0.00,,,0.00,,2013-09-14 04:54:00,